User: anonymous
Location: Skalnate Pleso
(49.1889°N, 20.2450°E)
Time: 20:27:19
(UTC+02:00)
Language:

Iridium 45 - Orbit

View from above orbital plane
View from above orbital plane
View from above satellite
View from above satellite

Ground track
Ground track

The orbit data is extracted from the following two-line orbital elements,

1 25104U 97082A   14209.45256299  .00000250  00000-0  82449-4 0  8319
2 25104 087.0297 344.5191 0002596 121.7110 301.1097 14.34229861869193
Epoch (UTC): 28 July 2014 10:51:41
Eccentricity: 0.0002596
inclination: 87.0297°
perigee height: 776 km
apogee height: 779 km
right ascension of ascending node: 344.5191°
argument of perigee: 121.7110°
revolutions per day: 14.34229861
mean anomaly at epoch: 301.1097°
orbit number at epoch: 86919

The dashed part of the orbit path shows where the satellite is in the earth's shadow,  

DLR